Weather History for Luverne, MN

Change the Weather History Date:

Saturday, November 16, 2013

  Actual Average (KFSD) Record (KFSD)
Temperature  
Mean Temperature 43 °F 32 °F  
Max Temperature 53 °F 42 °F 74 °F (1953)
Min Temperature 33 °F 23 °F -6 °F (1959)
Degree Days  
Heating Degree Days 22 33  
Month to date heating degree days 453  
Since 1 July heating degree days 1193  
Cooling Degree Days 0 0  
Month to date cooling degree days 0  
Year to date cooling degree days 690  
Moisture  
Dew Point 38 °F    
Average Humidity 87    
Maximum Humidity 93    
Minimum Humidity 70    
Precipitation  
Precipitation 0.02 in 0.05 in 1.15 in (1971)
Month to date precipitation 0.74  
Year to date precipitation 25.07  
Snow  
Snow 0.00 in 0.30 in 4.00 in (1909)
Month to date snowfall 3.1  
Since 1 July snowfall 4.4  
Since 1 September snowfall 4.4  
Snow Depth -    
Sea Level Pressure  
Sea Level Pressure 29.35 in    
Wind  
Wind Speed 7 mph (South)    
Max Wind Speed 12 mph    
Max Gust Speed -    
Visibility 7 miles    
Events Rain    
T = Trace of Precipitation, MM = Missing Value Source: NWS Daily Summary

Daily Weather History Graph

Daily Weather History Graph

Search for Another Location

Airport:

Trip Planner

Search our weather history database for the weather conditions in past years. The results will help you decide how hot, cold, wet, or windy it might be!

Date:

Astronomy

Nov. 16, 2013 Rise Set
Actual Time 7:20 AM CST 4:58 PM CST
Civil Twilight 6:49 AM CST 5:29 PM CST
Nautical Twilight 6:14 AM CST 6:04 PM CST
Astronomical Twilight 5:40 AM CST 6:38 PM CST
Moon 4:35 PM CST (11/16) 6:16 AM CST (11/16)
Length of Visible Light 10h 40m
Length of Day
9h 37m
Waxing Gibbous, 99% of the Moon is Illuminated
Nov 16
Waxing Gibbous
Nov 17
Full
Nov 25
Last Quarter
Dec 2
New
Dec 9
First Quarter

Hourly Weather History & Observations

Time (CST) Temp. Windchill Dew Point Humidity Pressure Visibility Wind Dir Wind Speed Gust Speed Precip Events Conditions
12:13 AM 35.6 °F 29.2 °F 32.0 °F 87% 29.53 in 10.0 mi South 8.1 mph - N/A   Clear
12:33 AM 35.6 °F 28.6 °F 32.0 °F 87% 29.53 in 10.0 mi SSE 9.2 mph - N/A   Clear
12:53 AM 35.6 °F 29.9 °F 32.0 °F 87% 29.53 in 10.0 mi South 6.9 mph - N/A   Clear
1:13 AM 33.8 °F 27.7 °F 32.0 °F 93% 29.52 in 10.0 mi South 6.9 mph - N/A   Clear
1:33 AM 33.8 °F 27.7 °F 32.0 °F 93% 29.52 in 10.0 mi South 6.9 mph - N/A   Clear
1:54 AM 33.8 °F 28.6 °F 32.0 °F 93% 29.51 in 7.0 mi South 5.8 mph - N/A   Clear
2:13 AM 33.8 °F 27.0 °F 32.0 °F 93% 29.51 in 7.0 mi South 8.1 mph - N/A   Clear
2:33 AM 33.8 °F 27.7 °F 32.0 °F 93% 29.50 in 7.0 mi South 6.9 mph - N/A   Clear
2:54 AM 33.8 °F 28.6 °F 32.0 °F 93% 29.49 in 7.0 mi South 5.8 mph - N/A   Clear
3:13 AM 33.8 °F - 32.0 °F 93% 29.49 in 7.0 mi Calm Calm - N/A   Clear
3:33 AM 33.8 °F 28.6 °F 32.0 °F 93% 29.47 in 5.0 mi SSE 5.8 mph - N/A   Clear
3:54 AM 33.8 °F 28.6 °F 32.0 °F 93% 29.47 in 5.0 mi South 5.8 mph - N/A   Clear
4:13 AM 35.6 °F 31.7 °F 33.8 °F 93% 29.46 in 5.0 mi SSE 4.6 mph - N/A   Clear
4:33 AM 35.6 °F 31.7 °F 33.8 °F 93% 29.45 in 4.0 mi SSE 4.6 mph - N/A   Clear
4:54 AM 35.6 °F 29.9 °F 33.8 °F 93% 29.44 in 4.0 mi SSE 6.9 mph - N/A   Clear
5:13 AM 35.6 °F 32.8 °F 33.8 °F 93% 29.42 in 3.0 mi SE 3.5 mph - N/A   Scattered Clouds
5:33 AM 35.6 °F 30.7 °F 33.8 °F 93% 29.41 in 3.0 mi SE 5.8 mph - N/A   Overcast
5:53 AM 37.4 °F 33.8 °F 35.6 °F 93% 29.40 in 2.5 mi ESE 4.6 mph - N/A   Overcast
6:13 AM 37.4 °F 34.9 °F 35.6 °F 93% 29.39 in 2.5 mi SE 3.5 mph - N/A   Overcast
6:33 AM 39.2 °F 32.5 °F 37.4 °F 93% 29.39 in 3.0 mi SSE 10.4 mph - N/A   Overcast
6:53 AM 41.0 °F 35.8 °F 37.4 °F 87% 29.38 in 3.0 mi SSE 8.1 mph - N/A   Overcast
7:13 AM 41.0 °F 35.2 °F 39.2 °F 93% 29.39 in 3.0 mi South 9.2 mph - N/A   Overcast
7:33 AM 42.8 °F 37.0 °F 41.0 °F 93% 29.38 in 4.0 mi SSE 10.4 mph - N/A   Overcast
7:53 AM 42.8 °F 38.0 °F 41.0 °F 93% 29.38 in 4.0 mi SSE 8.1 mph - N/A   Overcast
8:13 AM 42.8 °F 38.0 °F 41.0 °F 93% 29.37 in 2.5 mi SE 8.1 mph - N/A   Overcast
8:33 AM 44.6 °F 39.7 °F 42.8 °F 93% 29.36 in 2.5 mi SSE 9.2 mph - N/A   Overcast
8:53 AM 44.6 °F 38.8 °F 42.8 °F 93% 29.34 in 3.0 mi SE 11.5 mph - N/A   Overcast
9:13 AM 46.4 °F 41.9 °F 42.8 °F 87% 29.34 in 3.0 mi SSE 9.2 mph - N/A   Overcast
9:33 AM 46.4 °F 41.5 °F 44.6 °F 93% 29.34 in 3.0 mi SSE 10.4 mph - N/A   Overcast
9:53 AM 46.4 °F 42.4 °F 44.6 °F 93% 29.32 in 3.0 mi SSE 8.1 mph - N/A   Overcast
10:13 AM 46.4 °F 42.4 °F 44.6 °F 93% 29.31 in 3.0 mi SE 8.1 mph - N/A   Overcast
10:33 AM 46.4 °F 42.4 °F 44.6 °F 93% 29.31 in 2.0 mi SE 8.1 mph - 0.02 in Rain Rain
10:53 AM 48.2 °F - 44.6 °F 87% 29.31 in 2.5 mi South 6.9 mph - 0.02 in   Overcast
11:13 AM 50.0 °F - 46.4 °F 87% 29.29 in 3.0 mi South 8.1 mph - N/A   Overcast
11:33 AM 50.0 °F - 46.4 °F 87% 29.28 in 3.0 mi South 5.8 mph - N/A   Overcast
11:53 AM 50.0 °F - 46.4 °F 87% 29.25 in 3.0 mi SE 4.6 mph - N/A   Overcast
12:13 PM 51.8 °F - 46.4 °F 82% 29.25 in 4.0 mi SSE 9.2 mph - N/A   Overcast
12:33 PM 51.8 °F - 46.4 °F 82% 29.24 in 5.0 mi South 10.4 mph - N/A   Light Drizzle
12:53 PM 51.8 °F - 46.4 °F 82% 29.24 in 5.0 mi South 8.1 mph - N/A   Overcast
1:13 PM 51.8 °F - 46.4 °F 82% 29.24 in 7.0 mi SSW 9.2 mph - N/A   Overcast
1:33 PM 50.0 °F - 46.4 °F 87% 29.24 in 7.0 mi SW 9.2 mph - N/A   Overcast
1:53 PM 51.8 °F - 46.4 °F 82% 29.24 in 7.0 mi SW 10.4 mph - N/A   Overcast
2:13 PM 50.0 °F - 44.6 °F 82% 29.24 in 7.0 mi WSW 10.4 mph - N/A   Overcast
2:33 PM 51.8 °F - 44.6 °F 76% 29.23 in 7.0 mi SW 10.4 mph - N/A   Overcast
2:53 PM 51.8 °F - 44.6 °F 76% 29.24 in 10.0 mi SW 11.5 mph - N/A   Overcast
3:13 PM 53.6 °F - 44.6 °F 72% 29.23 in 10.0 mi SW 11.5 mph - N/A   Mostly Cloudy
3:34 PM 51.8 °F - 44.6 °F 76% 29.24 in 10.0 mi SW 11.5 mph - N/A   Scattered Clouds
3:53 PM 51.8 °F - 42.8 °F 71% 29.25 in 10.0 mi SW 10.4 mph - N/A   Clear
4:13 PM 50.0 °F - 42.8 °F 76% 29.26 in 10.0 mi SW 8.1 mph - N/A   Clear
4:34 PM 48.2 °F - 42.8 °F 82% 29.26 in 10.0 mi SW 6.9 mph - N/A   Clear
4:53 PM 46.4 °F 42.9 °F 41.0 °F 81% 29.26 in 10.0 mi SW 6.9 mph - N/A   Clear
5:13 PM 42.8 °F 40.1 °F 37.4 °F 81% 29.27 in 10.0 mi SW 4.6 mph - N/A   Clear
5:34 PM 39.2 °F 35.0 °F 35.6 °F 87% 29.28 in 10.0 mi South 5.8 mph - N/A   Clear
5:53 PM 37.4 °F 32.1 °F 35.6 °F 93% 29.29 in 7.0 mi South 6.9 mph - N/A   Clear
6:13 PM 37.4 °F 33.8 °F 35.6 °F 93% 29.29 in 10.0 mi South 4.6 mph - N/A   Clear
6:34 PM 37.4 °F 33.8 °F 33.8 °F 87% 29.30 in 10.0 mi SSW 4.6 mph - N/A   Clear
6:53 PM 37.4 °F - 33.8 °F 87% 29.29 in 10.0 mi Calm Calm - N/A   Clear
7:13 PM 37.4 °F 33.8 °F 33.8 °F 87% 29.30 in 10.0 mi South 4.6 mph - N/A   Clear
7:34 PM 35.6 °F 32.8 °F 32.0 °F 87% 29.31 in 10.0 mi SW 3.5 mph - N/A   Clear
7:53 PM 37.4 °F 34.9 °F 33.8 °F 87% 29.32 in 10.0 mi SW 3.5 mph - N/A   Clear
8:13 PM 39.2 °F 33.0 °F 33.8 °F 81% 29.32 in 10.0 mi WSW 9.2 mph - N/A   Clear
8:33 PM 37.4 °F 31.4 °F 33.8 °F 87% 29.33 in 10.0 mi SW 8.1 mph - N/A   Clear
8:53 PM 37.4 °F 31.4 °F 32.0 °F 81% 29.34 in 10.0 mi SW 8.1 mph - N/A   Clear
9:14 PM 37.4 °F 30.3 °F 32.0 °F 81% 29.35 in 10.0 mi WSW 10.4 mph - N/A   Clear
9:33 PM 37.4 °F 30.8 °F 32.0 °F 81% 29.35 in 10.0 mi WSW 9.2 mph - N/A   Clear
9:53 PM 37.4 °F 30.3 °F 32.0 °F 81% 29.35 in 10.0 mi WSW 10.4 mph - N/A   Clear
10:13 PM 37.4 °F 31.4 °F 32.0 °F 81% 29.36 in 10.0 mi WSW 8.1 mph - N/A   Clear
10:33 PM 35.6 °F 28.6 °F 32.0 °F 87% 29.37 in 10.0 mi WSW 9.2 mph - N/A   Clear
10:53 PM 37.4 °F 30.3 °F 32.0 °F 81% 29.37 in 10.0 mi WSW 10.4 mph - N/A   Clear
11:13 PM 39.2 °F 32.5 °F 32.0 °F 75% 29.37 in 10.0 mi West 10.4 mph - N/A   Clear
11:33 PM 39.2 °F 32.5 °F 32.0 °F 75% 29.37 in 10.0 mi West 10.4 mph - N/A   Clear
11:53 PM 42.8 °F 36.6 °F 33.8 °F 70% 29.36 in 10.0 mi West 11.5 mph - N/A   Clear